When you browse on this site, cookies collect data to enhance your experience and personalize the content and advertising you see.
Visit our Privacy Policy to learn more. By continuing to use the site, you agree to this use of cookies and data.
  • In Spain
  • List of Countries
  • For 7 days
  • Water Temperature
  • Weather Map
  • Weather Widgets
  • user-avatar
    Login

    Hourly Weather Graz

    Today, 6 June, Saturday

    Time Temperature Precipitation Wind Pressure Humidity
    00:00 +11°C° 0 mm 0 mps 717 mmHg 91%
    01:00 +12°C° 0 mm 0 mps 717 mmHg 93%
    02:00 +12°C° 0 mm 0 mps 717 mmHg 93%
    03:00 +11°C° 0 mm 0 mps 717 mmHg 93%
    04:00 +11°C° 0 mm 0 mps 717 mmHg 93%
    05:00 +13°C° 0 mm 0 mps 718 mmHg 88%
    06:00 +14°C° 0 mm 0 mps 718 mmHg 84%
    07:00 +15°C° 0 mm 0 mps 718 mmHg 79%
    08:00 +18°C° 0 mm 1 mps 718 mmHg 75%
    09:00 +20°C° 0 mm 1 mps 718 mmHg 70%
    10:00 +20°C° 0 mm 2 mps 718 mmHg 65%
    11:00 +20°C° 0.1 mm 2 mps 718 mmHg 64%
    12:00 +21°C° 0.1 mm 2 mps 718 mmHg 63%
    13:00 +23°C° 0.1 mm 2 mps 717 mmHg 62%
    14:00 +23°C° 0.1 mm 2 mps 717 mmHg 62%
    15:00 +23°C° 0.1 mm 2 mps 717 mmHg 63%
    16:00 +23°C° 0.1 mm 2 mps 717 mmHg 63%
    17:00 +22°C° 0.4 mm 1 mps 717 mmHg 70%
    18:00 +21°C° 0.4 mm 1 mps 717 mmHg 77%
    19:00 +20°C° 0.4 mm 1 mps 716 mmHg 83%
    20:00 +19°C° 0.1 mm 1 mps 717 mmHg 86%
    21:00 +18°C° 0.1 mm 1 mps 717 mmHg 89%
    22:00 +15°C° 0.1 mm 0 mps 717 mmHg 92%
    23:00 +16°C° 0 mm 1 mps 717 mmHg 93%

    Tomorrow, 7 June, Sunday

    Time Temperature Precipitation Wind Pressure Humidity
    00:00 +15°C° 0 mm 1 mps 717 mmHg 93%
    01:00 +15°C° 0 mm 1 mps 717 mmHg 94%
    02:00 +15°C° 0 mm 1 mps 717 mmHg 94%
    03:00 +13°C° 0 mm 0 mps 717 mmHg 95%
    04:00 +13°C° 0 mm 0 mps 717 mmHg 95%
    05:00 +15°C° 0.1 mm 1 mps 717 mmHg 94%
    06:00 +16°C° 0.1 mm 1 mps 717 mmHg 93%
    07:00 +18°C° 0.1 mm 1 mps 717 mmHg 92%
    08:00 +18°C° 0.1 mm 1 mps 717 mmHg 89%
    09:00 +19°C° 0.1 mm 1 mps 717 mmHg 85%
    10:00 +20°C° 0.1 mm 1 mps 718 mmHg 82%
    11:00 +22°C° 0.2 mm 1 mps 717 mmHg 75%
    12:00 +23°C° 0.2 mm 1 mps 717 mmHg 68%
    13:00 +25°C° 0.2 mm 1 mps 717 mmHg 62%
    14:00 +25°C° 0.7 mm 1 mps 717 mmHg 64%
    15:00 +24°C° 0.7 mm 1 mps 717 mmHg 65%
    16:00 +24°C° 0.7 mm 1 mps 717 mmHg 67%
    17:00 +23°C° 0.4 mm 1 mps 717 mmHg 72%
    18:00 +22°C° 0.4 mm 1 mps 717 mmHg 77%
    19:00 +21°C° 0.4 mm 1 mps 717 mmHg 82%
    20:00 +20°C° 0.8 mm 1 mps 717 mmHg 85%
    21:00 +19°C° 0.8 mm 1 mps 718 mmHg 88%
    22:00 +17°C° 0.8 mm 2 mps 718 mmHg 91%
    23:00 +16°C° 0.4 mm 1 mps 718 mmHg 92%

    Day after tomorrow, 8 June, Monday

    Time Temperature Precipitation Wind Pressure Humidity
    00:00 +15°C° 0.4 mm 1 mps 718 mmHg 92%
    01:00 +15°C° 0.4 mm 1 mps 718 mmHg 93%
    02:00 +14°C° 0.1 mm 1 mps 718 mmHg 92%
    03:00 +14°C° 0.1 mm 1 mps 718 mmHg 92%
    04:00 +14°C° 0.1 mm 1 mps 718 mmHg 91%
    05:00 +14°C° 0.1 mm 1 mps 719 mmHg 90%
    06:00 +14°C° 0.1 mm 1 mps 719 mmHg 90%
    07:00 +14°C° 0.1 mm 1 mps 719 mmHg 90%
    08:00 +14°C° 0.7 mm 1 mps 720 mmHg 91%
    09:00 +14°C° 0.7 mm 1 mps 720 mmHg 92%
    10:00 +14°C° 0.7 mm 1 mps 720 mmHg 93%
    11:00 +14°C° 0.9 mm 1 mps 720 mmHg 93%
    12:00 +14°C° 0.9 mm 1 mps 720 mmHg 93%
    13:00 +14°C° 0.9 mm 1 mps 720 mmHg 93%
    14:00 +15°C° 0.1 mm 1 mps 720 mmHg 89%
    15:00 +16°C° 0.1 mm 1 mps 720 mmHg 85%
    16:00 +18°C° 0.1 mm 1 mps 720 mmHg 81%
    17:00 +16°C° 0 mm 1 mps 720 mmHg 83%
    18:00 +15°C° 0 mm 0 mps 720 mmHg 85%
    19:00 +15°C° 0 mm 0 mps 720 mmHg 87%
    20:00 +14°C° 0 mm 0 mps 721 mmHg 88%
    21:00 +14°C° 0 mm 0 mps 721 mmHg 89%
    22:00 +13°C° 0 mm 0 mps 721 mmHg 90%
    23:00 +13°C° 0 mm 0 mps 721 mmHg 90%

    9 June, Tuesday

    Time Temperature Precipitation Wind Pressure Humidity
    00:00 +13°C° 0 mm 0 mps 721 mmHg 90%
    01:00 +13°C° 0 mm 0 mps 721 mmHg 90%
    02:00 +13°C° 0.1 mm 0 mps 721 mmHg 90%
    03:00 +13°C° 0.1 mm 0 mps 721 mmHg 90%
    04:00 +13°C° 0.1 mm 0 mps 721 mmHg 90%
    05:00 +13°C° 0 mm 0 mps 721 mmHg 87%
    06:00 +14°C° 0 mm 0 mps 722 mmHg 85%
    07:00 +15°C° 0 mm 0 mps 722 mmHg 82%
    08:00 +16°C° 0 mm 0 mps 722 mmHg 78%
    09:00 +19°C° 0 mm 1 mps 722 mmHg 74%
    10:00 +21°C° 0 mm 1 mps 722 mmHg 70%
    11:00 +21°C° 0.2 mm 1 mps 722 mmHg 72%
    12:00 +21°C° 0.2 mm 1 mps 722 mmHg 74%
    13:00 +20°C° 0.2 mm 1 mps 722 mmHg 76%
    14:00 +21°C° 0.5 mm 1 mps 721 mmHg 76%
    15:00 +21°C° 0.5 mm 1 mps 721 mmHg 76%
    16:00 +22°C° 0.5 mm 1 mps 721 mmHg 76%
    17:00 +21°C° 0.7 mm 1 mps 721 mmHg 80%
    18:00 +18°C° 0.7 mm 0 mps 721 mmHg 85%
    19:00 +17°C° 0.7 mm 0 mps 721 mmHg 89%
    20:00 +16°C° 0.6 mm 0 mps 721 mmHg 91%
    21:00 +15°C° 0.6 mm 0 mps 721 mmHg 92%
    22:00 +15°C° 0.6 mm 0 mps 721 mmHg 94%
    23:00 +14°C° 0 mm 0 mps 721 mmHg 94%

    10 June, Wednesday

    Time Temperature Precipitation Wind Pressure Humidity
    00:00 +14°C° 0 mm 0 mps 721 mmHg 94%
    01:00 +14°C° 0 mm 0 mps 721 mmHg 95%
    02:00 +14°C° 0 mm 0 mps 721 mmHg 95%
    03:00 +14°C° 0 mm 0 mps 721 mmHg 95%
    04:00 +13°C° 0 mm 0 mps 721 mmHg 95%
    05:00 +14°C° 0.3 mm 0 mps 721 mmHg 94%
    06:00 +15°C° 0.3 mm 0 mps 721 mmHg 93%
    07:00 +16°C° 0.3 mm 0 mps 721 mmHg 91%
    08:00 +16°C° 1.2 mm 0 mps 722 mmHg 92%
    09:00 +16°C° 1.2 mm 0 mps 722 mmHg 93%
    10:00 +16°C° 1.2 mm 0 mps 722 mmHg 94%
    11:00 +16°C° 0.4 mm 0 mps 722 mmHg 92%
    12:00 +17°C° 0.4 mm 0 mps 722 mmHg 90%
    13:00 +17°C° 0.4 mm 0 mps 722 mmHg 88%
    14:00 +18°C° 0.6 mm 0 mps 721 mmHg 86%
    15:00 +20°C° 0.6 mm 1 mps 721 mmHg 85%
    16:00 +21°C° 0.6 mm 1 mps 721 mmHg 83%
    17:00 +20°C° 0.8 mm 1 mps 721 mmHg 85%
    18:00 +20°C° 0.8 mm 1 mps 721 mmHg 87%
    19:00 +19°C° 0.8 mm 1 mps 721 mmHg 89%
    20:00 +18°C° 0.6 mm 1 mps 721 mmHg 90%
    21:00 +18°C° 0.6 mm 1 mps 722 mmHg 91%
    22:00 +16°C° 0.6 mm 1 mps 722 mmHg 92%
    23:00 +16°C° 0.2 mm 1 mps 722 mmHg 92%

    11 June, Thursday

    Time Temperature Precipitation Wind Pressure Humidity
    00:00 +16°C° 0.2 mm 1 mps 722 mmHg 93%
    01:00 +16°C° 0.2 mm 1 mps 721 mmHg 93%
    02:00 +15°C° 0.3 mm 1 mps 721 mmHg 93%
    03:00 +15°C° 0.3 mm 1 mps 721 mmHg 94%
    04:00 +15°C° 0.3 mm 1 mps 721 mmHg 94%
    05:00 +15°C° 0.7 mm 1 mps 721 mmHg 94%
    06:00 +15°C° 0.7 mm 0 mps 721 mmHg 95%
    07:00 +15°C° 0.7 mm 0 mps 722 mmHg 95%
    08:00 +15°C° 2.1 mm 0 mps 722 mmHg 95%
    09:00 +15°C° 2.1 mm 0 mps 722 mmHg 95%
    10:00 +15°C° 2.1 mm 0 mps 722 mmHg 95%
    11:00 +16°C° 0.8 mm 1 mps 722 mmHg 94%
    12:00 +16°C° 0.8 mm 1 mps 722 mmHg 93%
    13:00 +18°C° 0.8 mm 1 mps 721 mmHg 92%
    14:00 +18°C° 0.1 mm 1 mps 721 mmHg 89%
    15:00 +18°C° 0.1 mm 1 mps 721 mmHg 87%
    16:00 +19°C° 0.1 mm 1 mps 721 mmHg 84%
    17:00 +18°C° 0 mm 1 mps 721 mmHg 85%
    18:00 +18°C° 0 mm 1 mps 721 mmHg 87%
    19:00 +18°C° 0 mm 1 mps 721 mmHg 88%
    20:00 +16°C° 0.1 mm 1 mps 721 mmHg 89%
    21:00 +16°C° 0.1 mm 1 mps 721 mmHg 90%
    22:00 +15°C° 0.1 mm 1 mps 721 mmHg 90%
    23:00 +15°C° 0.1 mm 1 mps 721 mmHg 91%
    Show more